logo
Search for airport 
image banner adimage banner adimage banner ad
image banner ad

LKMT - Ostrava/Mosnov

Located in Ostrava, Czech Republic

ICAO - LKMT, IATA - OSR

Data provided by Airmate  

General information

Coordinates: N49°41'46" E18°6'39"
Elevation is 844 feet MSL.
 
View others Airports in Moravian-Silesian Region

Operational data

Special qualification required
Current time UTC:
Current local time:
Weather
METAR: LKMT 270400Z VRB01KT 0800 R22/P2000N R04/P2000N BCFG FEW003 11/11 Q1021 BECMG CAVOK
TAF: TAF LKMT 262300Z 2700/2800 VRB02KT CAVOK TEMPO 2700/2706 2000 BCFG BR SCT003 PROB30 TEMPO 2700/2706 0700 FG BKN002 TEMPO 2710/2718 21010KT 8000 SHRA SCT040CB
View NOTAMs / SUP AIP / TFR affecting this airport [VIEW]
Communications frequencies: [VIEW]

Runways:

RWY identifierQFULength (ft)Width (ft)SurfaceLDA (ft)
0446°11519207CON
22226°11519207CON

Airport contact information

Address: Ostrava Czech Republic

Handlers

Euro Jet

Euro Jet
[VIEW][VIEW]
+420736470704

Ostrava Airport Handling

Ostrava Airport Handling

Other aviation service providers

Flight schools

Elmontex, A.S.

Elmontex, A.S.

Fly Service Care A.S.

Fly Service Care A.S.

Let's Fly, S.R.O

Let's Fly, S.R.O
letsfly@letsfly.cz+420597471474

Všb - Tu Ostrava - Fakulta Strojní

Všb - Tu Ostrava - Fakulta Strojní

Satellite view of LKMT